Terminal Aerodrome Forecast
Issued by NWS

Home | Current Version | Previous Version | Graphics & Text | Print | Product List | Glossary On
Versions: 1 2 3 4 5 6 7 8 9 10 11 12 13 14 15 16 17 18 19 20 21 22 23
000
FTUS43 KICT 172337
TAFRSL
TAF
KRSL 172337Z 1800/1824 10010KT P6SM SCT025 BKN045
     FM180200 08007KT 2SM -SN OVC007
     FM180500 09008KT 1SM -SN OVC007
     FM181200 05008KT 5SM BR BKN009 OVC015
     FM182100 32008KT P6SM BKN050=

USA.gov is the U.S. government's official web portal to all federal, state and local government web resources and services.